Regional Weather Roundup
Issued by NWS

Home | Current Version | Previous Version | Text Only | Print | Product List | Glossary Off
Versions: 1 2 3 4 5 6 7 8 9 10 11 12 13 14 15 16 17 18 19 20 21 22 23 24 25 26 27 28

000
ASUS45 KSLC 202010
RWRUT

UTAH REGIONAL WEATHER ROUNDUP
NATIONAL WEATHER SERVICE SALT LAKE CITY UT
200 PM MDT WED SEP 20 2017

UTZ001>011-023>025-202100-

NORTHERN UTAH

CITY           SKY/WX    TMP DP  RH WIND       PRES   REMARKS
BRIGHAM CITY   MOSUNNY   69  28  21 S16       29.83F
DUGWAY         MOSUNNY   73  26  17 S10G18    29.79F
HILL AFB       MOSUNNY   66  30  26 SW9       29.83F
LOGAN          MOSUNNY   66  31  27 S14       29.83F
OGDEN          PTSUNNY   66  30  26 S10       29.82F
SALT LAKE CITY MOSUNNY   74  31  20 S22G29    29.80F
TOOELE VALLEY  SUNNY     73  32  21 S12G18    29.80F
WENDOVER       SUNNY     71  31  22 SE9       29.78F
HEBER CITY     SUNNY     70  28  21 SW18G24   29.87F
WEST JORDAN    SUNNY     70  42  36 SE18G26   29.83F

$$

UTZ011>015-024>027-202100-

CENTRAL/NORTHEAST UTAH

CITY           SKY/WX    TMP DP  RH WIND       PRES   REMARKS
PROVO AIRPORT  SUNNY     69  41  36 VRB3      29.85F
MOAB/CANYONLAN MOSUNNY   81  35  19 SW14G22   29.83F
DELTA          SUNNY     73  34  23 S10G16    29.84F
PRICE          SUNNY     69  33  26 CALM      29.92F
ROOSEVELT      SUNNY     66  32  28 CALM      29.91F
VERNAL         SUNNY     68  34  28 MISG      29.89F

$$

UTZ013>016-019>022-027-202100-

SOUTHERN UTAH

CITY           SKY/WX    TMP DP  RH WIND       PRES   REMARKS
BRYCE CANYON   SUNNY     68  34  28 SW17      30.06F
CEDAR CITY     SUNNY     76  35  22 SW26G38   29.91F
MILFORD        SUNNY     77  38  24 SW22G32   29.86F
ST GEORGE      CLEAR     84  39  20 W9G17     29.80F
HANKSVILLE     SUNNY     81  32  17 SW8G18    29.85F
BLANDING         N/A     75  31  19 SW18G28   30.06F

$$

REGIONAL REPORTS     COLORADO/ARIZONA

CITY           SKY/WX    TMP DP  RH WIND       PRES   REMARKS
CRAIG, CO      MOSUNNY   68  36  30 VRB6      29.92F
GRAND JUNCTION SUNNY     77  37  23 W13G21    29.87F
RIFLE, CO      SUNNY     77  33  20 W16       29.89F
MONTROSE, CO   SUNNY     78  30  17 SW18G33   29.95F
CORTEZ, CO     SUNNY     76  30  18 SW15      30.02F
PAGE, AZ       SUNNY     84  32  15 S8G16     29.87F
GRAND CANYON   SUNNY     73  29  19 SW17G26   30.08F
KINGMAN, AZ    SUNNY     86  35  16 SW25G32   29.89F
FLAGSTAFF, AZ  SUNNY     69  29  22 SW16G35   30.14F

$$

REGIONAL REPORTS    NEVADA/IDAHO/WYOMING

CITY           SKY/WX    TMP DP  RH WIND       PRES   REMARKS
LAS VEGAS, NV  SUNNY     87  41  19 S9        29.75F
ELY, NY        SUNNY     69  28  21 S12G24    29.88F
ELKO, NV       MOSUNNY   68  31  25 SW20G29   29.81F
POCATELLO, ID  PTSUNNY   67  32  27 S23G31    29.77F
BURLEY, ID     PTSUNNY   68  32  26 W13       29.73F
FORT BRIDGER,    N/A     61  31  33 W24       29.95F
EVANSTON, WY   PTSUNNY   57  30  35 SW22G28   29.92F
ROCK SPRINGS,  SUNNY     56  27  32 SW17      29.94F
KEMMERER, WY     N/A     54  27  35 SW22G29   29.93F

$$




USA.gov is the U.S. government's official web portal to all federal, state and local government web resources and services.